Regional Weather Roundup
Issued by NWS Memphis, TN

Home | Current Version | Previous Version | Text Only | Print | Product List | Glossary On
Versions: 1 2 3 4 5 6 7 8 9 10 11 12 13 14 15 16 17 18 19 20 21 22 23 24 25 26 27 28 29 30 31 32 33 34 35 36 37 38 39 40 41 42 43 44 45 46 47 48 49 50
000
ASUS44 KMEG 071510
RWRMEG
MEMPHIS CWA HOURLY WEATHER ROUNDUP
NATIONAL WEATHER SERVICE MEMPHIS TN
900 AM CST SUN FEB 07 2016

...WEST TENNESSEE...

CITY           SKY/WX    TMP DP  RH WIND       PRES   REMARKS
MEMPHIS INTL   MOSUNNY   46  28  49 S10       30.20F
NWS MEMPHIS      N/A     41 N/A N/A MISG        N/A
JACKSON        SUNNY     42  28  57 S8        30.20F
LEXINGTON      SUNNY     34  28  80 CALM      30.20F
DYERSBURG      SUNNY     45  27  49 CALM      30.20S
UNION CITY     SUNNY     41  28  60 SW5       30.16S
PARIS          SUNNY     39  25  56 SW12      30.18R WCI  32


...EASTERN ARKANSAS...

CITY           SKY/WX    TMP DP  RH WIND       PRES   REMARKS
JONESBORO      SUNNY     41  29  62 SW10      30.18S
WEST MEMPHIS   SUNNY     41  33  73 S8        30.19F
BATESVILLE     SUNNY     45  27  49 SW5       30.17F
NEWPORT        SUNNY     42  32  68 S10       30.19F
WALNUT RIDGE   SUNNY     39  28  65 SW12      30.16F WCI  32
BLYTHEVILLE    SUNNY     45  32  60 S7        30.19R
SEARCY         SUNNY     37  28  70 SW5       30.22S WCI  34
STUTTGART      SUNNY     45  32  61 SW6       30.22S
PINE BLUFF     SUNNY     40  30  67 SW6       30.23F
MONTICELLO     SUNNY     44  32  62 W6        30.25F


...NORTH MISSISSIPPI...

CITY           SKY/WX    TMP DP  RH WIND       PRES   REMARKS
TUPELO         SUNNY     42  29  59 SW3       30.27S
OLIVE BRANCH   MOSUNNY   37  32  81 S9        30.20F WCI  31
TUNICA         SUNNY     39  32  75 S8        30.23F WCI  34
CORINTH        SUNNY     37  30  75 SE5       30.23F WCI  34
GREENWOOD      SUNNY     39  32  76 S3        30.28F
COLUMBUS       SUNNY     38  32  80 CALM      30.28S
STARKVILLE     FAIR      41  30  65 CALM      30.29R
GOLDEN TRIANGL SUNNY     39  28  65 CALM      30.28R


...SOUTHEAST MISSOURI...

CITY           SKY/WX    TMP DP  RH WIND       PRES   REMARKS
WEST PLAINS    SUNNY     43  24  47 SW13      30.09F
POPLAR BLUFF   SUNNY     39  27  62 SW9       30.13F WCI  33
CAPE GIRARDEAU SUNNY     41  26  55 SW10      30.12F


...NORTHWEST ALABAMA...

CITY           SKY/WX    TMP DP  RH WIND       PRES   REMARKS
MUSCLE SHOALS  SUNNY     38  30  73 CALM      30.26F


...MIDDLE TENNESSEE...

CITY           SKY/WX    TMP DP  RH WIND       PRES   REMARKS
NASHVILLE      PTSUNNY   41  27  57 S3        30.22F
CLARKSVILLE    MOSUNNY   39  29  67 S6        30.17F WCI  35
COLUMBIA       SUNNY     39  36  87 CALM      30.20F


...WESTERN KENTUCKY...

CITY           SKY/WX    TMP DP  RH WIND       PRES   REMARKS
PADUCAH        SUNNY     43  25  49 SW12      30.14S
FORT CAMPBELL  MOSUNNY   42  25  50 S9        30.17F


...CENTRAL ARKANSAS...

CITY           SKY/WX    TMP DP  RH WIND       PRES   REMARKS
LITTLE ROCK    SUNNY     40  27  59 SW7       30.22S


SKY/WX REPORTED AS FAIR MEANS FEW OR NO CLOUDS BELOW
12 THOUSAND FEET.




USA.gov is the U.S. government's official web portal to all federal, state and local government web resources and services.